Hourly Weather Roundup
Issued by NWS Central Illinois

Home | Current Version | Previous Version | Graphics & Text | Print | Product List | Glossary On
Versions: 1 2 3 4 5 6 7 8 9 10 11 12 13 14 15 16 17 18 19 20 21 22 23 24 25 26 27 28 29 30 31 32 33 34 35 36 37 38 39 40 41 42 43 44 45 46 47 48 49 50
000
NZUS43 KILX 041510
HWRILX

AREA WEATHER ROUNDUP
NATIONAL WEATHER SERVICE, LINCOLN IL
1000 AM CDT SAT JUL 04 2015


CITY           SKY/WX    TMP DP  RH WIND       PRES   REMARKS
BLOOMINGTON    SUNNY     75  62  64 E3        30.04S
CHAMPAIGN      SUNNY     73  62  68 CALM      30.04R
DANVILLE       SUNNY     71  63  75 CALM      30.01R
DECATUR        SUNNY     74  59  59 CALM      30.04R
EFFINGHAM      SUNNY     74  60  62 CALM      30.05R
FLORA          SUNNY     72  64  75 CALM      30.03S
GALESBURG      SUNNY     73  61  65 CALM      30.03S
JACKSONVILLE   SUNNY     75  67  76 SW5       30.04R
LACON          SUNNY     72  59  63 CALM      30.02S
LAWRENCEVILLE  MOSUNNY   74  66  76 CALM      30.02S
LITCHFIELD     PTSUNNY   73  62  70 CALM      30.05R
$$


CITY           SKY/WX    TMP DP  RH WIND       PRES   REMARKS
LINCOLN        SUNNY     75  62  63 S5        30.04R
MACOMB         SUNNY     72  63  73 CALM      30.06R
MATTOON        SUNNY     74  60  61 CALM      30.03R
MT CARMEL AP   MOSUNNY   73  64  73 N3        30.02S
OLNEY-NOBLE AP CLOUDY    72  64  78 N5        30.03S
PARIS          SUNNY     74  63  69 CALM      30.04R
PEORIA         SUNNY     77  59  53 CALM      30.03R
PONTIAC        SUNNY     74  65  74 W3        30.03S
RANTOUL        SUNNY     74  63  67 CALM      30.03S
ROBINSON       PTSUNNY   74  65  72 CALM      30.03S
SPRINGFIELD    SUNNY     76  66  71 CALM      30.04R
TAYLORVILLE    SUNNY     72  63  73 CALM      30.04S
$$

...REGIONAL REPORTS...


CITY           SKY/WX    TMP DP  RH WIND       PRES   REMARKS
CHICAGO O`HARE SUNNY     73  55  53 W6        30.00R
KANKAKEE       SUNNY     74  62  65 CALM      30.03S
MOLINE         SUNNY     75  58  55 NW3       30.02R
MOUNT STERLING NOT AVBL
MOUNT VERNON   SUNNY     75  64  69 E3        30.03S
PITTSFIELD     PTSUNNY   74  67  80 S6        30.05S
QUINCY         SUNNY     74  63  68 S5        30.04R
ROCKFORD       SUNNY     75  58  55 W6        30.01S
$$


CITY           SKY/WX    TMP DP  RH WIND       PRES   REMARKS
BURLINGTON     SUNNY     72  64  76 SW5       30.03R
CEDAR RAPIDS   SUNNY     71  63  75 W6        30.01S
DES MOINES     MOSUNNY   73  61  65 SW3       30.02R
KIRKSVILLE     SUNNY     74  63  68 VRB6      30.05R
OTTUMWA        SUNNY     71  61  70 SW3       30.02R
ST LOUIS       MOSUNNY   77  65  66 CALM      30.04R
$$


CITY           SKY/WX    TMP DP  RH WIND       PRES   REMARKS
TERRE HAUTE    SUNNY     75  62  64 NE6       30.02S
EVANSVILLE     MOSUNNY   76  65  68 N6        30.01S
INDIANAPOLIS   MOSUNNY   75  58  55 N3        30.01R
LAFAYETTE      SUNNY     70  60  70 CALM      30.02R
MADISON        SUNNY     73  60  63 CALM      29.99R
MILWAUKEE      PTSUNNY   75  58  55 W8        29.98S
$$




USA.gov is the U.S. government's official web portal to all federal, state and local government web resources and services.